NUSANTARA LIMA (NUSANT*)

Last updated on Mon Oct 13 2025 00:02:05 GMT+0000 (Coordinated Universal Time)

1 65588U 25205A 25284.94756395 -.00000392 00000+0 00000+0 0 9998 2 65588 0.2920 262.6159 4141611 115.0763 94.4142 1.00351422 270
UTC large
Height (km)
Speed (km/s)
/
Latitude / Longitude
Inclination (degrees)
Orbital Period (minutes)
Azimuth
Elevation
Range (km)
Doppler Factor

Next 0 passes for location: London (51.5072 / 0.1276)

Sorry there are no passes over London.
NUSANTARA LIMA (NUSANT*)